Skip Page Navigation
NASA JPL Caltech
NASA Logo - Jet Propulsion Laboratory + View the NASA Portal
+ Near-Earth Object (NEO) Program
Search JPL
JPL Home Earth Solar System Stars & Galaxies Technology
JPL Solar System Dynamics
BODIES ORBITS EPHEMERIDES TOOLS PHYSICAL DATA DISCOVERY FAQ SITE MAP
JPL Small-Body Database Browser
Search: [ help ]  
34718 Cantagalli (2001 PR28)
Classification: Outer Main-belt Asteroid          SPK-ID: 2034718
Ephemeris | Orbit Diagram | Orbital Elements | Physical Parameters | Discovery Circumstances ]

[ show orbit diagram ]
Orbital Elements at Epoch 2456400.5 (2013-Apr-18.0) TDB
Reference: MPO236566 (heliocentric ecliptic J2000)
 Element Value Uncertainty (1-sigma)   Units 
e 0.1217494 n/a  
a 3.2187567 n/a AU
q 2.8268750 n/a AU
i 6.15003 n/a deg
node 148.32470 n/a deg
peri 117.16664 n/a deg
M 60.29959 n/a deg
tp 2456047.2009141
(2012-Apr-29.70091410)
n/a JED
period 2109.2626159
5.77
n/a
n/a
d
yr
n 0.17067576 n/a deg/d
Q 3.6106384 n/a AU
  Orbit Determination Parameters
   # obs. used (total)      331  
   first obs. used      1990-??-??  
   last obs. used      2012-08-11  
   # oppositions      12  
   planetary ephem.      DE403  
   condition code      0  
   fit RMS      0.57  
   data source      MPC:mpn  
   producer      MPCLINUX  

Additional Information
 T_jup = 3.169 

Ephemeris | Orbit Diagram | Orbital Elements | Physical Parameters | Discovery Circumstances ]

Physical Parameter Table
Parameter Symbol Value Units Sigma Reference Notes
absolute magnitude H 14.5 mag n/a PDS3 (MPO 21847)  

34718 Cantagalli           Discovered 2001 Aug. 14 by L. Tesi and A. Boattini at San Marcello Pistoiese.
Michela Cantagalli (b. 1965) is the daughter-in-law of the first discoverer.
NOTE: some special characters may not display properly (any characters within {} are an attempt to place the proper accent above a character)
Reference: 20050407/MPCPages.arcLast Updated: 2005-04-15

Alternate Designations
 2001 PR28 = 1999 FR10 = 2000 KB83 
Ephemeris | Orbit Diagram | Orbital Elements | Physical Parameters | Discovery Circumstances ]
ABOUT SSD CREDITS/AWARDS PRIVACY/COPYRIGHT GLOSSARY LINKS
FirstGov 2013-May-23 03:07 UT
(server date/time)  
NASA Home Page
Site Manager:   Donald K. Yeomans
Webmaster  Alan B. Chamberlin